RH
11 11 12 13 12 14 18 22 23 24 24 27 29 30 32 32 30 26 22 17 20 43 53 58 78 92 100 100 100 100 100 100 100 100 100 100 100 100 100 97 99 100 100 100
17 16 16 16 15 16 19 19 17 16 17 19 21 26 27 30 33 30 22 18 15 16 19 31 47 56 66 95 100 100 100 100 100 100 100 100 100 100 100 100 100 100 100 88
24 25 28 23 25 25 23 22 20 18 20 22 21 19 18 17 17 16 15 17 18 16 13 13 17 26 39 47 52 63 72 80 91 98 100 100 100 100 99 99 99 98 97 95
37 46 54 44 43 39 34 33 35 32 29 28 24 20 19 22 26 23 19 16 14 12 13 13 13 12 13 16 22 32 41 48 52 56 60 70 83 94 100 99 100 100 99 97
38 41 42 45 51 50 46 56 55 51 49 52 47 47 45 37 27 21 19 19 22 21 16 13 11 10 11 12 13 12 14 20 28 35 39 44 50 54 58 58 57 54 52 50
50 46 49 53 46 48 44 44 45 46 46 56 56 46 36 31 30 33 34 29 18 15 15 14 16 18 15 12 11 12 12 13 13 14 16 18 21 23 25 25 24 22 21 20
59 59 57 54 60 64 58 56 51 50 49 50 56 51 50 58 51 44 37 29 25 24 23 17 12 13 13 14 16 16 13 11 12 13 14 15 16 16 17 18 18 18 19 21
56 59 59 58 60 64 62 60 56 62 62 54 47 54 51 50 42 42 45 47 40 28 21 20 19 18 14 10 12 12 12 15 17 16 14 16 17 16 16 17 19 19 20 21
52 51 52 63 66 64 66 70 68 77 66 67 73 58 66 68 63 59 50 37 33 35 31 23 19 16 13 12 12 10 10 13 14 14 17 20 23 22 22 21 20 20 21 22
58 63 62 56 58 65 72 79 76 79 74 69 64 63 62 84 80 63 58 60 46 34 30 27 22 15 13 10 8 8 9 9 11 15 18 20 24 30 33 35 35 36 34 32
61 62 62 65 64 63 70 85 77 78 75 71 77 73 72 74 68 78 71 74 60 47 36 30 20 14 10 9 7 6 6 7 8 10 15 20 24 28 34 39 43 44 43 42
56 57 65 64 68 65 77 83 83 78 78 75 76 66 74 83 80 84 70 76 65 50 43 30 22 13 8 7 7 6 5 6 6 7 9 15 22 27 34 35 40 46 47 47
56 54 57 64 65 73 76 82 82 76 79 78 77 68 76 81 89 89 81 83 62 52 41 28 21 12 8 6 6 5 5 5 6 6 7 9 14 25 34 40 44 46 54 60
64 54 54 58 66 67 72 86 82 83 77 76 76 76 71 69 85 95 76 62 66 53 43 33 23 12 7 5 5 5 5 5 5 5 6 7 11 20 36 48 55 58 61 68
69 63 57 57 65 72 82 79 77 82 84 76 76 80 70 71 97 95 84 60 64 48 38 31 23 12 7 6 5 4 5 5 5 5 5 7 10 15 28 46 56 63 68 71
72 63 57 55 67 70 78 73 69 82 93 89 75 76 71 74 73 96 87 59 67 42 42 28 21 13 7 6 5 4 4 4 5 5 5 6 8 11 19 35 48 58 61 66
73 64 57 58 68 73 69 71 66 80 90 80 78 83 68 62 66 95 75 54 60 36 40 27 19 13 7 6 5 4 4 4 4 4 5 5 6 8 12 22 38 51 62 69
71 62 59 64 72 68 67 69 70 82 99 73 78 77 70 74 64 82 75 48 49 28 28 20 14 10 6 5 5 4 4 4 4 4 4 5 6 7 8 14 25 42 56 70
68 62 62 67 69 66 63 64 73 78 78 73 77 71 75 72 72 74 65 47 42 28 21 14 9 7 5 5 4 4 4 4 4 4 4 4 5 6 7 9 15 31 45 60
67 65 61 70 66 61 59 66 75 70 74 74 70 60 75 69 65 68 69 48 38 28 15 9 6 5 4 4 3 3 3 4 4 5 4 4 5 5 6 8 10 17 34 54
69 67 66 67 68 63 58 61 64 64 70 73 70 57 70 64 62 68 57 49 32 24 12 6 5 4 3 3 3 4 4 4 4 6 6 5 5 5 6 8 10 15 24 38
69 70 79 83 74 62 62 67 70 78 82 76 59 58 53 66 60 72 50 46 26 16 8 5 4 3 3 3 4 5 6 6 6 6 7 7 5 6 6 8 9 11 17 25
72 82 93 78 64 68 72 70 71 76 81 66 60 55 64 62 62 68 45 31 17 12 5 4 3 3 3 4 6 6 6 6 7 7 8 8 7 6 6 8 9 11 14 18
74 71 84 81 75 81 80 82 72 74 83 65 55 55 63 61 58 46 42 24 16 7 4 3 3 3 4 6 6 6 6 6 7 8 9 9 9 8 7 7 8 11 13 16
82 81 79 80 82 80 83 79 82 67 70 60 51 59 61 64 56 38 29 16 10 4 4 3 3 4 6 6 6 6 7 7 7 8 10 10 9 10 8 8 8 10 12 15
83 86 78 78 75 83 85 83 86 71 63 56 47 54 59 54 47 34 22 11 7 3 3 3 4 5 6 6 6 6 7 7 7 8 9 10 10 10 10 9 8 8 10 12
98 90 81 73 81 85 96 97 80 66 55 49 47 54 58 46 34 31 13 9 4 3 3 4 5 6 6 7 6 6 6 7 7 8 9 10 10 10 10 10 9 9 10 11
Wind_Speed
36 31 26 24 19 13 10 9 9 12 17 19 22 28 34 37 40 43 50 60 73 87 104 115 127 126 123 123 126 124 129 128 129 130 130 129 129 128 126 130 134 136 138 133
48 40 35 31 27 22 16 10 2 5 11 17 22 26 30 34 39 45 49 54 63 72 82 94 109 125 126 127 131 130 130 132 136 136 137 136 134 135 137 138 141 141 144 143
54 54 47 41 36 30 25 20 15 8 1 6 14 23 29 34 38 43 48 55 62 67 73 80 88 100 114 125 133 138 140 140 140 140 141 144 143 143 145 146 147 150 151 150
55 55 54 48 48 42 38 35 30 21 16 10 9 11 16 22 29 37 46 51 55 60 65 72 79 85 93 101 107 119 129 134 136 139 143 143 144 146 148 148 149 150 150 151
52 52 49 45 45 44 40 40 37 33 31 29 23 20 16 15 18 26 34 42 48 54 62 69 74 79 84 89 95 101 105 114 121 127 132 136 140 141 142 144 144 144 146 145
47 46 47 47 44 43 42 43 41 37 32 33 31 29 23 21 19 19 24 31 38 46 53 61 67 72 80 86 89 92 96 99 102 105 110 116 122 125 126 127 126 126 125 122
44 46 47 46 47 44 44 44 43 42 41 37 37 35 36 30 34 34 33 31 32 36 44 52 59 65 72 77 82 86 92 96 98 100 103 104 106 108 110 109 110 109 108 107
43 45 44 44 45 47 48 45 43 46 46 45 40 45 43 41 36 36 37 36 35 37 38 43 50 57 64 68 73 79 83 86 89 94 97 98 100 101 101 100 100 100 100 99
39 42 42 44 48 47 50 49 42 47 47 50 51 48 51 55 59 53 53 49 49 46 43 39 44 51 58 63 68 73 76 80 85 87 89 91 94 97 97 97 97 97 96 94
38 41 41 43 43 48 47 49 52 49 50 51 52 56 57 60 61 66 66 67 63 58 50 47 41 44 51 57 61 67 72 76 79 83 86 87 89 91 93 94 94 94 93 94
35 36 40 42 44 46 50 51 52 54 54 53 59 60 65 67 69 73 71 76 71 70 63 58 49 42 43 50 56 59 64 69 74 77 81 84 88 89 91 91 90 91 89 87
32 35 37 39 43 46 48 51 54 53 56 57 63 65 69 75 73 75 75 80 79 78 75 69 57 48 43 44 49 54 58 62 66 71 76 79 82 86 87 87 86 84 82 81
32 33 36 38 41 44 47 51 51 56 56 58 64 68 73 74 75 74 83 86 83 83 78 75 65 52 45 43 44 48 52 55 59 64 69 73 78 81 84 84 83 82 79 76
32 35 37 41 42 44 47 51 56 58 63 63 70 72 69 74 79 81 84 87 91 90 85 82 72 59 49 43 41 41 46 49 52 56 59 66 71 75 79 79 80 78 75 72
31 36 38 42 43 44 48 53 55 59 63 65 71 74 68 77 83 88 91 88 91 93 90 85 76 63 52 45 41 39 40 44 47 50 52 56 62 67 71 74 74 75 72 71
32 35 39 43 44 47 49 54 58 63 67 71 74 78 75 78 81 93 94 90 99 93 93 89 79 67 55 48 42 40 38 40 43 45 46 48 52 56 61 66 68 70 70 68
33 36 40 44 45 48 53 56 60 65 68 74 78 83 80 76 84 97 95 94 102 96 95 91 81 68 57 50 45 41 39 38 39 41 42 44 46 48 52 57 63 65 66 64
33 36 39 44 46 50 54 58 63 67 71 77 80 83 83 84 86 99 100 96 102 100 99 91 78 65 57 51 45 42 39 37 37 38 39 41 42 44 46 50 54 58 61 62
34 36 40 46 48 52 57 60 65 70 74 79 83 85 84 89 93 101 104 101 101 102 101 90 73 60 54 50 45 41 38 36 36 36 37 38 40 41 42 44 48 52 55 57
38 40 44 48 51 56 60 63 67 71 77 82 88 84 92 94 91 105 107 103 105 106 103 83 68 58 52 49 44 40 38 36 35 34 36 37 38 40 41 41 43 46 50 54
41 44 50 53 55 59 62 66 71 76 84 87 93 86 95 97 100 113 109 110 107 107 99 79 66 58 52 47 44 38 37 35 34 34 34 35 36 38 39 40 41 44 47 50
43 48 54 56 58 61 64 69 76 82 86 92 95 90 89 101 104 116 112 113 110 107 92 74 63 56 50 44 42 39 37 35 33 33 32 32 33 35 37 39 41 42 45 47
47 49 55 58 61 64 68 73 80 86 92 95 97 99 102 107 112 116 113 116 108 104 83 69 61 55 50 45 42 40 37 36 34 32 31 31 31 32 34 37 39 40 42 44
50 52 57 61 66 70 74 80 85 89 95 99 99 99 108 106 114 112 115 114 110 95 76 67 58 52 48 45 43 41 37 34 32 30 30 29 29 30 32 34 37 39 40 42
54 56 61 65 70 74 79 83 89 92 97 101 99 105 111 111 110 113 117 113 103 83 70 62 55 51 49 45 42 40 36 33 30 28 27 28 28 28 30 32 34 37 38 40
60 62 67 70 73 77 82 87 90 97 99 103 100 110 114 109 112 115 117 111 94 77 66 59 54 51 48 44 41 38 34 32 29 27 26 26 26 26 27 29 32 34 36 39
64 67 70 73 77 80 85 90 95 101 101 100 106 114 111 110 111 115 113 102 84 72 62 57 54 50 46 43 41 37 34 31 28 27 24 25 25 24 25 27 29 32 34 36
Wind_Direction
70 75 75 79 90 111 134 159 194 202 213 218 229 230 230 232 237 235 232 226 222 223 226 231 233 234 234 234 236 238 239 241 241 244 245 246 248 248 250 252 254 255 258 260
73 69 67 72 71 68 67 67 44 252 239 235 232 233 239 240 240 237 234 233 231 227 225 229 231 233 236 236 237 237 238 240 240 243 244 246 248 249 251 252 253 254 257 261
67 70 72 72 71 71 69 66 64 66 36 272 258 252 251 250 248 247 245 240 238 239 237 235 233 233 235 238 239 240 242 243 244 245 246 247 248 250 251 253 255 256 259 262
63 65 65 62 65 63 63 59 59 58 50 27 349 309 288 280 274 267 262 259 256 251 248 246 245 242 240 238 239 240 242 244 247 247 248 249 250 251 253 254 255 257 259 261
66 66 67 64 65 67 62 62 60 57 54 46 40 26 4 333 296 277 268 263 261 261 260 257 253 249 248 247 246 245 244 245 246 249 251 251 252 253 255 256 258 260 261 263
64 63 62 61 59 58 54 56 51 51 50 48 42 33 19 9 355 336 312 291 276 266 260 256 254 255 256 254 250 249 248 248 248 248 249 249 250 252 253 255 257 258 260 262
62 59 58 54 54 53 49 48 43 41 38 36 32 28 30 18 7 4 350 332 314 294 280 271 264 258 255 253 253 254 254 253 252 250 250 251 252 251 252 254 256 257 259 260
53 53 50 48 45 45 42 41 40 36 30 26 23 24 19 13 12 6 356 351 342 327 305 287 275 269 265 261 258 256 254 253 254 254 253 253 253 254 254 254 256 257 259 260
43 44 41 40 39 37 35 37 34 30 27 22 21 16 16 13 13 8 1 357 350 345 337 314 291 279 271 264 260 258 257 255 254 254 254 254 254 255 256 257 258 258 260 261
35 33 33 33 34 31 27 27 25 27 21 18 13 14 7 10 5 5 4 359 352 347 343 335 313 292 278 272 266 261 259 256 255 254 254 255 255 256 256 257 257 258 259 260
24 22 24 25 26 26 24 22 19 17 17 14 15 13 9 6 4 3 1 354 352 349 346 344 329 309 290 279 273 267 261 257 255 253 254 254 254 254 254 255 256 257 258 259
13 12 14 13 16 17 16 16 14 11 9 10 8 7 7 4 4 359 356 353 351 349 347 345 335 321 304 290 280 274 267 260 258 255 253 253 253 254 255 255 256 257 258 260
3 3 2 3 5 7 9 8 4 7 5 4 4 1 4 1 1 359 358 359 352 349 347 344 339 327 315 300 288 279 272 265 259 255 253 253 253 253 254 255 256 257 259 260
352 353 352 355 358 358 359 3 0 360 1 359 359 357 354 358 359 356 354 353 352 351 348 343 340 332 322 309 296 285 276 270 265 261 255 253 252 252 252 253 254 256 257 258
342 344 344 348 353 351 354 356 354 354 355 355 355 355 351 355 355 355 352 349 348 346 346 344 340 333 325 316 304 292 281 274 268 264 259 255 253 251 251 251 252 252 254 254
332 337 337 342 347 347 346 352 348 348 350 353 351 353 349 353 351 351 350 348 350 345 343 342 339 334 327 319 310 300 288 278 272 267 263 257 254 253 251 250 250 250 250 252
326 329 333 336 341 343 342 345 343 345 346 348 347 349 348 352 351 349 348 346 347 344 343 341 338 333 326 319 313 304 295 284 276 269 264 260 255 253 252 250 249 249 249 250
321 322 328 333 337 338 338 340 339 344 345 344 344 348 347 351 347 348 346 344 343 342 342 340 336 331 324 319 314 306 297 288 280 273 266 261 258 254 252 251 249 248 247 247
320 320 328 331 332 334 334 335 340 343 343 344 341 345 347 348 348 346 344 341 340 340 341 338 333 329 323 318 314 307 299 291 283 276 270 264 260 256 253 252 250 248 247 246
322 324 328 327 330 331 331 336 337 341 339 342 342 345 346 346 345 343 343 337 339 340 339 336 331 328 323 318 313 308 300 293 286 280 273 267 262 258 255 253 252 251 248 246
323 326 328 328 328 328 331 336 335 336 340 341 341 345 346 347 344 343 340 339 338 337 338 334 330 327 323 318 313 309 301 295 288 283 278 270 265 261 257 253 251 250 249 248
324 326 329 327 326 326 330 335 335 337 337 340 341 343 339 344 342 340 338 338 337 338 337 332 329 326 323 320 315 311 303 296 288 282 279 275 267 263 259 253 252 251 250 249
321 326 324 326 325 326 331 334 334 335 336 337 340 342 342 342 340 339 335 336 337 337 335 331 328 326 324 322 317 313 307 299 289 282 277 274 269 264 260 256 253 252 252 251
317 320 321 323 325 327 329 332 333 335 335 337 339 341 341 340 336 335 335 337 337 336 333 330 328 327 325 322 318 314 310 304 293 284 278 274 272 267 262 257 254 253 253 252
315 318 319 321 323 325 328 330 330 333 333 335 338 341 340 337 336 333 332 336 337 335 332 329 328 327 325 322 319 317 314 308 300 290 282 275 275 272 265 260 256 255 254 253
314 315 317 321 323 326 327 329 331 331 335 335 336 340 337 334 334 331 332 335 335 334 331 329 328 327 325 323 322 320 317 311 303 296 287 279 278 275 268 263 260 258 256 254
312 314 317 320 323 326 326 328 330 330 333 337 336 336 335 331 331 330 333 336 333 332 330 328 327 327 325 323 323 321 319 313 307 300 290 283 283 278 269 264 262 260 258 256